Ellington Field, TX

4:27 AM CDT on July 25, 2017 (GMT -0500)
Ellington

Weather History for KEFD - July, 2013

Change the Weather History Date:

Tuesday, July 9, 2013

  Actual Average Record
Temperature  
Mean Temperature 86 °F -  
Max Temperature 96 °F 90 °F 96 °F (2000)
Min Temperature 77 °F 73 °F 73 °F (2012)
Cooling Degree Days 22    
Growing Degree Days 36 (Base 50)    
Moisture  
Dew Point 74 °F    
Average Humidity 68    
Maximum Humidity 94    
Minimum Humidity 39    
Precipitation  
Precipitation 0.00 in - - ()
Sea Level Pressure  
Sea Level Pressure 30.11 in    
Wind  
Wind Speed 3 mph (SSE)    
Max Wind Speed 14 mph    
Max Gust Speed 20 mph    
Visibility 10 miles    
Events      
Averages and records for this station are not official NWS values.
T = Trace of Precipitation, MM = Missing Value Source: NWS Daily Summary

Daily Weather History Graph

Daily Weather History Graph

Search for Another Location

Airport or City:

Trip Planner

Search our weather history database for the weather conditions in past years. The results will help you decide how hot, cold, wet, or windy it might be!

Date:

Astronomy

Jul. 09, 2013 Rise Set
Actual Time 6:27 AM CDT 8:23 PM CDT
Civil Twilight 6:00 AM CDT 8:50 PM CDT
Nautical Twilight 5:28 AM CDT 9:23 PM CDT
Astronomical Twilight 4:53 AM CDT 9:58 PM CDT
Moon 7:43 AM CDT (7/9) 9:13 PM CDT (7/9)
Length of Visible Light 14h 50m
Length of Day
13h 56m
New Moon, 2% of the Moon is Illuminated
Jul 9
New Moon
Jul 15
First Quarter
Jul 22
Full
Jul 29
Last Quarter
Aug 6
New

Hourly Weather History & Observations

Time (CDT) Temp. Heat Index Dew Point Humidity Pressure Visibility Wind Dir Wind Speed Gust Speed Precip Events Conditions
12:50 AM 78.8 °F - 75.2 °F 89% 30.12 in 10.0 mi Calm Calm - N/A   Partly Cloudy
1:50 AM 78.8 °F - 75.2 °F 89% 30.12 in 10.0 mi Calm Calm - N/A   Scattered Clouds
2:50 AM 78.8 °F - 75.2 °F 89% 30.12 in 10.0 mi Calm Calm - N/A   Partly Cloudy
3:50 AM 78.8 °F - 75.2 °F 89% 30.12 in 10.0 mi Calm Calm - N/A   Partly Cloudy
4:50 AM 78.8 °F - 75.2 °F 89% 30.12 in 10.0 mi Calm Calm - N/A   Partly Cloudy
5:50 AM 78.8 °F - 75.2 °F 89% 30.12 in 10.0 mi Calm Calm - N/A   Partly Cloudy
6:50 AM 77.0 °F - 75.2 °F 94% 30.13 in 10.0 mi Calm Calm - N/A   Partly Cloudy
7:50 AM 80.6 °F 87.1 °F 77.0 °F 89% 30.15 in 10.0 mi Calm Calm - N/A   Scattered Clouds
8:50 AM 89.6 °F 102.2 °F 77.0 °F 66% 30.16 in 10.0 mi SE 3.5 mph - N/A   Mostly Cloudy
9:50 AM 91.4 °F 105.1 °F 77.0 °F 63% 30.16 in 10.0 mi SE 5.8 mph - N/A   Scattered Clouds
10:50 AM 91.4 °F 105.1 °F 77.0 °F 63% 30.16 in 10.0 mi South 3.5 mph - N/A   Scattered Clouds
11:50 AM 96.8 °F 107.3 °F 73.4 °F 47% 30.15 in 10.0 mi South 3.5 mph - N/A   Scattered Clouds
12:50 PM 96.8 °F 107.3 °F 73.4 °F 47% 30.13 in 10.0 mi East 8.1 mph - N/A   Scattered Clouds
1:50 PM 96.8 °F 107.3 °F 73.4 °F 47% 30.12 in 10.0 mi ESE 11.5 mph - N/A   Scattered Clouds
3:50 PM 96.8 °F 101.8 °F 68.0 °F 39% 30.09 in 10.0 mi ESE 13.8 mph - N/A   Mostly Cloudy
4:50 PM 93.2 °F 97.7 °F 68.0 °F 44% 30.08 in 10.0 mi SE 13.8 mph 19.6 mph N/A   Mostly Cloudy
5:50 PM 96.8 °F 107.3 °F 73.4 °F 47% 30.07 in 10.0 mi SSE 10.4 mph - N/A   Mostly Cloudy
6:50 PM 95.0 °F 101.3 °F 69.8 °F 44% 30.06 in 10.0 mi SE 10.4 mph - N/A   Mostly Cloudy
7:50 PM 89.6 °F 94.7 °F 69.8 °F 52% 30.06 in 10.0 mi SSE 6.9 mph - N/A   Mostly Cloudy
8:50 PM 84.2 °F 88.4 °F 69.8 °F 62% 30.06 in 10.0 mi SSE 5.8 mph - N/A   Scattered Clouds
9:50 PM 84.2 °F 90.9 °F 73.4 °F 70% 30.06 in 10.0 mi South 4.6 mph - N/A   Scattered Clouds
10:50 PM 82.4 °F 88.2 °F 73.4 °F 74% 30.08 in 10.0 mi South 3.5 mph - N/A   Scattered Clouds
11:50 PM 82.4 °F 88.2 °F 73.4 °F 74% 30.10 in 10.0 mi South 3.5 mph - N/A   Scattered Clouds